Tracking 30995 objects as of 5-Jul-2025
HD Live streaming from Space Station
objects crossing your sky now

THOR ABLESTAR DEB

Track THOR ABLESTAR DEB now!
10-day predictions


NORAD ID: 48811
Int'l Code: 1961-015MP
Perigee: 900.2 km
Apogee: 1,044.7 km
Inclination: 67.1 °
Period: 104.4 minutes
Semi major axis: 7343 km
RCS: Unknown
Launch date: June 29, 1961
Source: United States (US)
Launch site: AIR FORCE EASTERN TEST RANGE (AFETR)

Note: This is SATELLITE DEBRIS
Your satellite tracking list
METEOR 3-3
Track 1 satellite(s)




NASA's NSSDC Master Catalog

Two Line Element Set (TLE):
1 48811U 61015MP  25185.19816654  .00000165  00000-0  22186-3 0  9990
2 48811  67.0605  99.1752 0098397  38.0917 322.7060 13.79602775584627
Source of the keplerian elements: AFSPC